SCP
-0 -0 -0 -0 0 0 0 0 0 0 0 0 -0 -0 -0 0 0 0 0 0 0 0 0 0 0 0 0 0 0 0 0 0 0 -0 -0 0 0 0 0 -0 0 0 -0 0 0 0 0
-0 -0 0 0 0 0 0 0 0 0 0 0 0 -0 -0 -0 0 0 0 0 0 0 0 0 0 0 0 0 0 0 0 0 0 0 0 0 0 0 0 0 0 0 0 0 0 0 0
-0 -0 0 0 0 0 0 0 0 0 0 0 0 0 -0 0 0 0 0 0 0 0 0 0 0 0 0 0 0 0 0 0 0 0 0 0 -0 0 0 0 0 0 0 0 0 0 0
0 0 0 0 0 0 0 0 0 0 0 -0 -0 -0 -0 -0 0 0 0 0 0 0 0 0 0 0 0 0 0 0 0 0 0 0 0 0 0 0 0 0 0 0 0 0 0 0 0
0 0 0 0 0 0 0 0 -0 -0 -0 -0 -0 -0 -0 -0 -0 0 -0 -0 -0 0 0 0 0 0 0 0 0 0 0 0 0 0 0 0 0 0 0 0 0 0 0 0 0 0 0
0 0 0 -0 -0 0 0 -0 -0 -0 -0 -0 -0 -0 -0 -0 0 -0 -0 -0 0 0 -0 -0 -0 0 0 0 0 0 0 0 0 0 0 0 0 0 0 0 0 0 0 0 0 0 0
0 0 -0 -0 -0 -0 0 0 -0 0 -0 -0 -0 -0 -0 -0 -0 0 0 0 0 0 0 0 0 0 0 0 0 0 0 0 0 0 0 0 0 0 0 0 0 0 0 0 0 0 0
0 -0 -0 -0 0 0 0 0 0 0 -0 -0 -0 -0 -0 -0 -0 -0 0 0 0 0 -0 0 0 0 0 0 0 0 0 0 0 0 0 0 0 0 0 0 0 0 0 0 0 0 0
-0 -0 0 -0 0 0 0 0 0 -0 -0 -0 -0 -0 -0 -0 -0 0 0 0 0 0 0 0 0 0 0 0 0 0 0 0 0 0 0 0 0 0 0 0 0 0 0 0 0 0 0
-0 -0 0 0 0 -0 0 0 -0 -0 -0 -0 -0 -0 -0 -0 0 0 0 -0 -0 0 0 0 0 0 0 0 0 0 0 -0 0 0 0 0 0 0 0 0 0 0 0 0 0 0 0
-0 0 0 0 0 0 0 -0 -0 -0 -0 -0 -0 -0 -0 0 0 0 -0 -0 -0 0 0 0 0 0 0 0 0 0 0 0 -0 -0 0 0 0 0 0 0 0 0 0 0 0 0 0
0 0 0 0 0 0 -0 -0 -0 -0 -0 -0 -0 -0 -0 0 0 -0 -0 -0 0 0 0 0 0 0 0 0 0 0 0 0 0 0 -0 0 0 0 0 0 0 0 0 0 0 0 0
-0 -0 -0 0 0 -0 -0 -0 -0 -0 -0 -0 -0 -0 -0 0 0 -0 -0 0 0 0 0 0 0 0 0 0 0 0 0 0 0 0 0 0 0 0 0 0 0 0 0 0 0 0 0
-0 -0 -0 0 0 0 -0 -0 -0 -0 -0 -0 -0 -0 0 0 0 -0 -0 0 0 0 0 0 0 0 0 0 0 0 0 0 0 0 0 0 0 0 0 0 0 0 0 0 0 0 0
-0 -0 0 0 0 0 -0 -0 -0 -0 -0 -0 -0 0 0 0 0 0 0 0 0 0 0 0 0 0 0 0 0 0 0 0 0 0 0 0 0 0 0 0 0 0 0 0 0 0 0
-0 0 0 0 0 0 -0 -0 0 -0 -0 -0 -0 -0 0 -0 0 0 0 0 0 0 0 0 0 0 0 0 0 0 0 0 0 0 0 0 0 0 0 0 0 0 0 0 0 0 0
0 0 0 0 0 0 0 -0 -0 0 -0 -0 0 -0 0 0 0 0 0 0 0 0 0 0 0 0 0 0 0 0 0 0 0 0 0 0 0 0 0 0 0 0 0 0 0 0 0
0 0 0 0 -0 0 0 -0 -0 0 -0 -0 -0 0 0 -0 -0 0 0 0 0 0 0 0 0 0 0 0 0 0 0 0 0 0 0 0 0 0 0 0 0 0 0 0 0 0 0
0 0 -0 -0 -0 0 0 0 -0 0 0 0 0 0 0 -0 0 0 0 0 0 0 0 0 0 0 0 0 0 0 0 0 0 0 0 0 0 0 0 0 0 0 0 0 0 0 0
0 0 0 -0 0 0 0 0 -0 0 0 0 0 0 0 0 0 0 0 0 0 0 0 0 0 0 0 0 0 0 0 0 0 0 0 0 0 0 0 0 0 0 0 0 0 0 0
0 0 0 0 0 0 0 -0 -0 0 0 0 0 0 0 0 0 0 0 0 0 0 0 0 0 0 0 0 0 0 0 0 0 0 0 0 0 0 0 0 0 0 0 0 0 0 0
0 0 0 0 0 0 0 0 0 0 0 0 0 0 0 0 0 0 0 0 0 0 0 0 0 0 0 0 0 0 0 0 0 0 0 0 0 0 0 0 0 0 0 0 0 0 0
0 0 0 0 -0 -0 0 0 0 0 0 0 0 0 0 0 0 0 0 0 0 0 0 0 0 0 0 0 0 0 0 0 0 0 0 0 0 0 0 0 0 0 0 0 0 0 0
0 0 0 0 -0 0 0 0 0 0 0 0 0 0 0 0 0 0 0 0 0 0 0 0 0 0 0 0 0 0 0 0 0 0 0 0 0 0 0 0 0 0 0 0 0 0 0
0 0 0 0 -0 0 0 0 0 0 0 0 0 0 0 0 0 0 0 0 0 0 0 0 0 0 0 0 0 0 0 0 0 0 0 0 0 0 0 0 0 0 0 0 0 0 0
0 0 0 0 0 0 0 0 0 0 0 0 0 0 0 0 0 0 0 0 0 0 0 0 0 0 0 0 0 0 0 0 0 0 0 0 0 0 0 0 0 0 0 0 0 0 0
0 0 0 0 0 0 0 0 0 0 0 0 0 0 0 0 0 0 0 0 0 0 0 0 0 0 0 0 0 0 0 0 0 0 0 0 0 0 0 0 0 0 0 0 0 0 0
0 0 0 0 0 0 0 0 0 0 0 0 0 0 0 0 0 0 0 0 0 0 0 0 0 0 0 0 0 0 0 0 0 0 0 0 0 0 0 0 0 0 0 0 0 0 0
0 0 0 0 0 0 0 0 0 0 0 0 0 0 0 0 0 0 0 0 0 0 0 0 0 0 0 0 0 0 0 0 0 0 0 0 0 0 0 0 0 0 0 0 0 0 0
Wind_Speed_500mb
43 45 47 48 48 48 47 46 46 46 47 50 52 53 52 50 46 41 36 35 32 29 26 24 23 18 13 16 28 17 12 13 26 37 32 34 35 37 34 33 35 34 33 29 27 31 28
45 47 48 50 50 51 50 49 49 49 49 51 54 55 54 49 46 43 36 34 31 27 25 23 21 17 13 32 5 9 19 17 26 31 32 33 27 33 38 34 31 30 32 43 25 32 33
45 47 48 50 52 52 52 53 54 54 54 54 56 57 53 50 46 39 35 31 26 21 20 18 16 13 19 33 9 8 20 25 26 28 29 32 31 23 23 34 36 33 34 32 35 33 30
46 46 47 51 54 55 54 55 56 56 56 56 57 56 52 49 42 35 27 22 18 13 9 7 10 8 16 11 11 15 19 27 27 26 26 24 28 31 42 32 19 28 34 33 36 39 34
46 48 49 50 55 56 56 56 57 56 55 54 56 50 51 42 34 30 27 21 20 14 9 3 4 11 16 10 4 18 24 26 26 26 22 17 25 36 35 31 27 32 30 39 31 14 20
46 51 52 53 56 57 57 57 57 56 54 53 53 41 41 34 35 33 30 21 18 5 15 4 6 13 11 4 2 8 23 23 27 26 24 25 25 29 30 27 31 34 36 33 24 30 25
47 53 53 54 55 58 58 59 58 57 55 53 51 36 35 33 32 29 35 27 13 3 13 17 12 17 9 10 8 9 22 24 30 30 31 37 26 33 40 39 42 44 27 27 21 21 15
45 51 53 56 57 58 59 61 61 59 56 54 51 35 27 27 27 22 29 20 14 14 16 4 4 4 3 7 14 24 22 28 36 33 40 32 34 38 34 36 30 35 29 34 30 22 18
43 52 55 57 56 58 60 62 62 59 55 53 50 39 22 23 18 22 14 25 16 13 16 11 1 7 6 4 4 16 27 38 32 38 39 39 35 27 41 28 29 33 36 31 32 23 21
45 53 56 54 57 60 60 61 63 61 57 52 49 40 25 16 7 16 11 28 16 7 11 9 7 6 3 5 13 6 16 38 40 42 41 43 43 29 26 34 33 35 34 32 32 27 26
46 52 55 58 60 62 63 62 64 63 58 53 49 39 21 17 12 16 24 26 10 4 9 8 7 7 7 14 15 18 12 25 41 37 32 43 44 41 38 33 34 32 34 25 32 35 31
43 51 56 60 62 64 66 66 65 63 59 53 47 35 18 15 15 21 25 21 6 14 5 7 4 14 18 3 4 14 12 17 24 37 45 41 46 31 31 34 26 21 26 34 27 29 32
44 50 56 61 65 67 69 70 67 63 60 54 47 34 12 5 15 29 22 11 14 9 7 7 9 17 23 9 15 11 11 22 24 23 35 42 42 25 11 24 24 26 27 22 28 28 34
48 52 56 60 65 68 71 73 69 63 60 54 46 22 7 6 27 25 13 19 13 13 7 5 14 21 14 16 17 13 19 25 19 23 31 30 33 41 27 34 36 29 35 30 39 28 28
49 53 57 60 65 69 72 73 71 63 58 56 42 13 4 17 27 17 22 16 12 10 8 14 23 13 10 9 8 30 30 22 17 21 27 25 12 10 9 10 19 32 28 18 20 37 28
50 53 56 59 64 69 73 72 69 63 55 53 43 10 10 30 18 9 18 9 3 6 13 12 20 3 18 20 20 24 16 11 5 6 23 19 19 25 21 18 20 24 15 16 19 27 37
48 52 56 60 66 69 72 70 65 62 54 43 21 15 6 20 8 24 10 10 4 7 13 9 11 16 22 19 16 22 18 11 11 22 24 24 17 18 16 20 28 15 25 27 25 14 24
49 53 55 61 67 69 67 65 59 56 53 37 13 11 18 16 18 5 7 8 4 8 5 9 11 13 14 14 21 22 18 14 16 23 22 17 14 26 30 8 27 22 25 3 11 25 25
50 52 55 62 68 66 62 58 51 44 43 43 20 13 14 15 7 6 5 5 7 6 5 7 8 6 8 17 10 8 10 7 14 21 19 22 14 21 33 34 26 26 32 29 27 28 37
49 50 54 63 67 64 58 51 44 35 29 26 16 6 4 6 7 12 5 5 7 6 17 12 14 9 18 20 17 13 16 5 5 21 10 15 21 28 25 8 15 23 8 20 20 21 36
46 48 53 63 67 59 54 47 40 28 20 13 6 8 8 8 8 14 8 3 14 8 10 9 11 13 14 17 21 23 19 14 17 20 18 14 27 29 27 24 14 24 29 26 26 28 28
45 47 51 62 65 56 50 44 36 23 14 9 12 13 8 22 10 13 9 3 12 4 9 10 10 20 12 21 23 27 28 24 19 8 18 15 23 24 25 26 28 21 28 26 29 27 28
44 44 49 60 64 56 46 37 32 21 14 8 12 10 12 6 10 12 4 7 8 6 13 12 16 15 19 18 22 24 30 29 29 23 21 13 20 19 25 11 16 25 32 30 34 31 25
43 48 50 55 62 58 43 32 22 17 6 6 16 11 17 16 5 12 5 8 14 15 18 21 14 19 14 20 30 37 40 37 34 31 30 24 20 22 21 21 17 6 11 12 20 30 21
43 50 50 55 61 57 40 20 15 12 10 5 10 9 16 14 15 18 13 13 11 14 19 18 16 10 19 24 21 20 24 25 28 30 28 26 20 12 9 19 19 19 12 2 13 14 10
45 49 49 55 60 51 26 12 12 10 8 5 9 7 11 15 6 10 16 7 15 11 12 12 4 10 13 20 17 15 10 6 6 8 17 25 22 17 19 6 9 10 11 7 6 14 12
44 47 48 54 56 40 21 9 7 9 10 0 9 9 8 15 18 7 10 15 5 9 11 5 2 12 8 11 7 11 17 7 10 10 10 19 21 23 20 13 16 16 6 3 16 8 14
45 45 47 54 52 29 15 14 13 11 10 3 8 10 7 12 21 18 15 15 11 12 6 11 11 10 15 10 7 8 13 3 12 14 8 15 17 16 22 14 18 7 6 11 10 2 10
45 46 49 53 43 26 17 18 17 15 11 7 7 9 10 16 17 19 18 20 20 6 11 6 10 10 7 4 6 7 11 9 16 11 10 7 5 8 4 4 3 4 9 2 11 22 24
Wind_Direction_500mb
30 28 26 24 21 18 13 8 5 1 356 351 348 346 342 336 331 325 317 312 303 291 286 287 274 269 279 249 263 264 222 192 190 183 202 209 221 224 239 245 240 245 251 262 259 253 247
27 25 23 20 17 12 9 5 3 360 354 348 346 345 341 337 333 327 319 313 302 290 278 278 266 258 257 258 273 268 223 193 181 187 203 213 224 231 256 271 255 248 256 259 244 247 241
26 22 18 16 12 7 4 1 360 358 354 349 347 346 343 340 335 329 322 316 312 301 286 275 258 251 255 248 258 245 203 194 192 201 214 221 230 248 240 262 258 256 261 257 245 239 244
23 18 14 10 8 6 4 1 359 358 355 352 349 349 348 346 342 339 333 331 339 338 328 268 241 221 262 239 247 227 207 202 204 209 224 229 234 249 249 266 270 244 245 254 233 212 225
21 16 10 8 7 4 2 1 1 358 356 353 351 354 356 3 11 8 358 358 360 11 29 93 64 199 260 313 258 223 202 204 208 205 215 235 229 237 237 249 244 225 246 227 246 184 238
18 15 11 8 6 5 2 1 1 359 357 354 355 358 7 14 16 14 9 8 8 39 17 49 276 225 235 23 18 198 199 202 196 204 217 219 220 226 233 221 236 227 216 248 237 168 219
14 12 11 8 6 4 3 3 1 359 358 355 358 359 3 9 15 20 17 342 345 151 278 317 320 301 278 255 249 184 189 197 200 207 220 208 218 221 232 228 249 274 282 292 248 232 214
10 8 9 5 4 3 2 2 1 358 357 356 357 358 355 2 14 26 29 33 15 327 299 285 228 327 290 306 248 218 186 201 210 225 221 237 231 250 239 255 242 255 259 257 262 253 220
4 3 2 2 2 1 0 360 360 357 356 356 354 355 353 359 21 18 28 7 336 313 260 145 105 346 14 247 248 225 204 222 223 230 237 236 235 231 246 242 244 241 248 249 253 217 247
0 359 0 3 360 357 357 357 357 355 355 355 351 351 352 2 3 348 2 350 339 274 259 126 167 77 287 277 227 208 243 239 232 241 241 251 240 253 250 254 240 248 237 253 265 245 241
359 1 2 360 357 354 354 354 354 352 351 352 348 345 344 355 334 360 329 335 319 276 250 69 52 316 302 327 341 168 268 237 245 245 241 251 238 244 251 250 239 246 269 225 247 255 260
354 356 358 358 357 354 353 353 351 348 348 348 345 340 335 339 326 320 322 319 308 231 102 127 310 339 311 18 356 309 248 234 249 255 259 251 266 230 259 239 253 284 263 258 243 246 243
344 345 347 350 352 351 351 350 349 346 346 345 344 338 326 319 319 319 313 278 245 281 134 79 340 323 307 310 296 312 294 228 245 230 237 236 250 218 243 258 227 238 240 241 228 228 243
339 339 341 342 344 346 347 348 347 346 344 343 345 341 15 296 323 313 309 253 260 71 32 25 304 302 286 4 292 300 281 266 204 293 281 266 237 201 180 245 259 232 232 244 250 247 259
338 338 339 341 343 344 346 346 346 347 345 340 344 345 311 306 321 305 272 248 25 23 4 325 301 254 239 228 300 299 279 287 14 339 313 289 287 189 314 264 263 252 259 277 309 275 263
338 339 339 340 342 342 343 345 345 344 346 341 342 326 251 327 309 285 257 9 358 10 318 302 292 354 312 322 317 310 309 47 323 316 329 315 281 196 164 249 227 251 302 254 241 270 271
337 337 338 338 339 342 341 343 346 343 347 343 356 285 332 341 292 253 298 50 296 72 328 309 325 296 295 309 299 300 290 81 30 315 309 295 276 250 261 222 248 197 236 231 249 215 251
336 338 339 339 339 340 341 342 347 344 347 354 329 277 343 339 249 322 358 9 14 277 246 281 286 283 288 311 289 283 282 338 23 313 291 334 305 272 233 292 322 302 283 4 288 223 234
332 335 339 340 341 341 342 343 348 349 351 353 318 299 335 333 311 20 98 229 290 271 298 288 276 242 320 287 297 227 300 23 326 300 1 351 249 265 245 213 190 248 259 254 253 265 269
330 333 337 341 343 342 342 344 349 351 350 350 309 291 105 62 61 320 355 181 249 191 282 278 289 268 274 267 235 263 281 202 245 294 22 312 279 275 287 132 225 282 258 279 278 262 259
326 333 339 343 344 343 342 343 349 354 358 17 319 45 348 321 51 327 286 314 277 250 219 255 241 252 300 293 284 279 274 301 274 237 257 255 275 277 280 289 278 283 283 278 246 259 267
320 328 336 343 345 343 343 341 348 2 16 34 322 340 322 279 298 276 146 231 306 305 273 271 254 305 285 280 286 308 316 296 299 314 267 243 265 276 285 272 267 275 275 268 262 266 269
317 329 334 340 343 341 340 338 339 1 48 341 330 290 286 265 244 269 17 353 325 311 271 290 313 307 284 320 330 304 293 288 282 277 286 289 272 274 270 326 298 267 258 257 254 245 251
318 325 331 335 340 338 335 333 338 353 7 344 307 290 275 283 229 299 323 268 281 283 292 296 263 284 323 314 298 278 260 254 251 251 239 259 277 271 278 285 263 34 22 306 284 273 238
315 319 329 330 335 333 329 328 336 344 355 15 304 286 289 280 317 284 245 268 266 248 238 268 286 305 313 288 277 258 236 229 240 230 232 216 252 271 254 262 275 284 170 250 265 198 211
308 314 316 325 330 328 318 312 328 343 340 33 290 263 273 299 27 1 286 271 292 285 242 218 239 294 284 276 254 259 278 327 213 171 209 227 214 244 274 231 248 76 59 36 340 247 68
302 309 313 321 326 321 306 265 286 319 319 154 297 279 270 272 285 289 299 332 342 291 288 234 264 266 234 267 307 266 267 314 263 252 191 196 226 223 244 254 291 114 111 13 247 67 48
299 301 308 317 319 309 282 257 258 281 318 335 281 277 238 271 276 278 272 264 271 250 260 41 273 199 248 283 259 274 290 339 281 260 231 192 185 224 217 237 245 85 158 271 60 326 316
291 297 305 309 307 301 250 255 254 259 280 314 277 287 258 257 258 283 257 243 227 240 262 241 287 287 27 294 309 314 281 275 271 261 264 232 323 277 306 248 72 205 298 351 307 314 315
Wind_Speed_850mb
43 45 47 48 48 48 47 46 46 46 47 50 52 53 52 50 46 41 36 35 32 29 26 24 23 18 13 16 28 17 12 13 26 37 32 34 35 37 34 33 35 34 33 29 27 31 28
45 47 48 50 50 51 50 49 49 49 49 51 54 55 54 49 46 43 36 34 31 27 25 23 21 17 13 32 5 9 19 17 26 31 32 33 27 33 38 34 31 30 32 43 25 32 33
45 47 48 50 52 52 52 53 54 54 54 54 56 57 53 50 46 39 35 31 26 21 20 18 16 13 19 33 9 8 20 25 26 28 29 32 31 23 23 34 36 33 34 32 35 33 30
46 46 47 51 54 55 54 55 56 56 56 56 57 56 52 49 42 35 27 22 18 13 9 7 10 8 16 11 11 15 19 27 27 26 26 24 28 31 42 32 19 28 34 33 36 39 34
46 48 49 50 55 56 56 56 57 56 55 54 56 50 51 42 34 30 27 21 20 14 9 3 4 11 16 10 4 18 24 26 26 26 22 17 25 36 35 31 27 32 30 39 31 14 20
46 51 52 53 56 57 57 57 57 56 54 53 53 41 41 34 35 33 30 21 18 5 15 4 6 13 11 4 2 8 23 23 27 26 24 25 25 29 30 27 31 34 36 33 24 30 25
47 53 53 54 55 58 58 59 58 57 55 53 51 36 35 33 32 29 35 27 13 3 13 17 12 17 9 10 8 9 22 24 30 30 31 37 26 33 40 39 42 44 27 27 21 21 15
45 51 53 56 57 58 59 61 61 59 56 54 51 35 27 27 27 22 29 20 14 14 16 4 4 4 3 7 14 24 22 28 36 33 40 32 34 38 34 36 30 35 29 34 30 22 18
43 52 55 57 56 58 60 62 62 59 55 53 50 39 22 23 18 22 14 25 16 13 16 11 1 7 6 4 4 16 27 38 32 38 39 39 35 27 41 28 29 33 36 31 32 23 21
45 53 56 54 57 60 60 61 63 61 57 52 49 40 25 16 7 16 11 28 16 7 11 9 7 6 3 5 13 6 16 38 40 42 41 43 43 29 26 34 33 35 34 32 32 27 26
46 52 55 58 60 62 63 62 64 63 58 53 49 39 21 17 12 16 24 26 10 4 9 8 7 7 7 14 15 18 12 25 41 37 32 43 44 41 38 33 34 32 34 25 32 35 31
43 51 56 60 62 64 66 66 65 63 59 53 47 35 18 15 15 21 25 21 6 14 5 7 4 14 18 3 4 14 12 17 24 37 45 41 46 31 31 34 26 21 26 34 27 29 32
44 50 56 61 65 67 69 70 67 63 60 54 47 34 12 5 15 29 22 11 14 9 7 7 9 17 23 9 15 11 11 22 24 23 35 42 42 25 11 24 24 26 27 22 28 28 34
48 52 56 60 65 68 71 73 69 63 60 54 46 22 7 6 27 25 13 19 13 13 7 5 14 21 14 16 17 13 19 25 19 23 31 30 33 41 27 34 36 29 35 30 39 28 28
49 53 57 60 65 69 72 73 71 63 58 56 42 13 4 17 27 17 22 16 12 10 8 14 23 13 10 9 8 30 30 22 17 21 27 25 12 10 9 10 19 32 28 18 20 37 28
50 53 56 59 64 69 73 72 69 63 55 53 43 10 10 30 18 9 18 9 3 6 13 12 20 3 18 20 20 24 16 11 5 6 23 19 19 25 21 18 20 24 15 16 19 27 37
48 52 56 60 66 69 72 70 65 62 54 43 21 15 6 20 8 24 10 10 4 7 13 9 11 16 22 19 16 22 18 11 11 22 24 24 17 18 16 20 28 15 25 27 25 14 24
49 53 55 61 67 69 67 65 59 56 53 37 13 11 18 16 18 5 7 8 4 8 5 9 11 13 14 14 21 22 18 14 16 23 22 17 14 26 30 8 27 22 25 3 11 25 25
50 52 55 62 68 66 62 58 51 44 43 43 20 13 14 15 7 6 5 5 7 6 5 7 8 6 8 17 10 8 10 7 14 21 19 22 14 21 33 34 26 26 32 29 27 28 37
49 50 54 63 67 64 58 51 44 35 29 26 16 6 4 6 7 12 5 5 7 6 17 12 14 9 18 20 17 13 16 5 5 21 10 15 21 28 25 8 15 23 8 20 20 21 36
46 48 53 63 67 59 54 47 40 28 20 13 6 8 8 8 8 14 8 3 14 8 10 9 11 13 14 17 21 23 19 14 17 20 18 14 27 29 27 24 14 24 29 26 26 28 28
45 47 51 62 65 56 50 44 36 23 14 9 12 13 8 22 10 13 9 3 12 4 9 10 10 20 12 21 23 27 28 24 19 8 18 15 23 24 25 26 28 21 28 26 29 27 28
44 44 49 60 64 56 46 37 32 21 14 8 12 10 12 6 10 12 4 7 8 6 13 12 16 15 19 18 22 24 30 29 29 23 21 13 20 19 25 11 16 25 32 30 34 31 25
43 48 50 55 62 58 43 32 22 17 6 6 16 11 17 16 5 12 5 8 14 15 18 21 14 19 14 20 30 37 40 37 34 31 30 24 20 22 21 21 17 6 11 12 20 30 21
43 50 50 55 61 57 40 20 15 12 10 5 10 9 16 14 15 18 13 13 11 14 19 18 16 10 19 24 21 20 24 25 28 30 28 26 20 12 9 19 19 19 12 2 13 14 10
45 49 49 55 60 51 26 12 12 10 8 5 9 7 11 15 6 10 16 7 15 11 12 12 4 10 13 20 17 15 10 6 6 8 17 25 22 17 19 6 9 10 11 7 6 14 12
44 47 48 54 56 40 21 9 7 9 10 0 9 9 8 15 18 7 10 15 5 9 11 5 2 12 8 11 7 11 17 7 10 10 10 19 21 23 20 13 16 16 6 3 16 8 14
45 45 47 54 52 29 15 14 13 11 10 3 8 10 7 12 21 18 15 15 11 12 6 11 11 10 15 10 7 8 13 3 12 14 8 15 17 16 22 14 18 7 6 11 10 2 10
45 46 49 53 43 26 17 18 17 15 11 7 7 9 10 16 17 19 18 20 20 6 11 6 10 10 7 4 6 7 11 9 16 11 10 7 5 8 4 4 3 4 9 2 11 22 24
Wind_Direction_850mb
30 28 26 24 21 18 13 8 5 1 356 351 348 346 342 336 331 325 317 312 303 291 286 287 274 269 279 249 263 264 222 192 190 183 202 209 221 224 239 245 240 245 251 262 259 253 247
27 25 23 20 17 12 9 5 3 360 354 348 346 345 341 337 333 327 319 313 302 290 278 278 266 258 257 258 273 268 223 193 181 187 203 213 224 231 256 271 255 248 256 259 244 247 241
26 22 18 16 12 7 4 1 360 358 354 349 347 346 343 340 335 329 322 316 312 301 286 275 258 251 255 248 258 245 203 194 192 201 214 221 230 248 240 262 258 256 261 257 245 239 244
23 18 14 10 8 6 4 1 359 358 355 352 349 349 348 346 342 339 333 331 339 338 328 268 241 221 262 239 247 227 207 202 204 209 224 229 234 249 249 266 270 244 245 254 233 212 225
21 16 10 8 7 4 2 1 1 358 356 353 351 354 356 3 11 8 358 358 360 11 29 93 64 199 260 313 258 223 202 204 208 205 215 235 229 237 237 249 244 225 246 227 246 184 238
18 15 11 8 6 5 2 1 1 359 357 354 355 358 7 14 16 14 9 8 8 39 17 49 276 225 235 23 18 198 199 202 196 204 217 219 220 226 233 221 236 227 216 248 237 168 219
14 12 11 8 6 4 3 3 1 359 358 355 358 359 3 9 15 20 17 342 345 151 278 317 320 301 278 255 249 184 189 197 200 207 220 208 218 221 232 228 249 274 282 292 248 232 214
10 8 9 5 4 3 2 2 1 358 357 356 357 358 355 2 14 26 29 33 15 327 299 285 228 327 290 306 248 218 186 201 210 225 221 237 231 250 239 255 242 255 259 257 262 253 220
4 3 2 2 2 1 0 360 360 357 356 356 354 355 353 359 21 18 28 7 336 313 260 145 105 346 14 247 248 225 204 222 223 230 237 236 235 231 246 242 244 241 248 249 253 217 247
0 359 0 3 360 357 357 357 357 355 355 355 351 351 352 2 3 348 2 350 339 274 259 126 167 77 287 277 227 208 243 239 232 241 241 251 240 253 250 254 240 248 237 253 265 245 241
359 1 2 360 357 354 354 354 354 352 351 352 348 345 344 355 334 360 329 335 319 276 250 69 52 316 302 327 341 168 268 237 245 245 241 251 238 244 251 250 239 246 269 225 247 255 260
354 356 358 358 357 354 353 353 351 348 348 348 345 340 335 339 326 320 322 319 308 231 102 127 310 339 311 18 356 309 248 234 249 255 259 251 266 230 259 239 253 284 263 258 243 246 243
344 345 347 350 352 351 351 350 349 346 346 345 344 338 326 319 319 319 313 278 245 281 134 79 340 323 307 310 296 312 294 228 245 230 237 236 250 218 243 258 227 238 240 241 228 228 243
339 339 341 342 344 346 347 348 347 346 344 343 345 341 15 296 323 313 309 253 260 71 32 25 304 302 286 4 292 300 281 266 204 293 281 266 237 201 180 245 259 232 232 244 250 247 259
338 338 339 341 343 344 346 346 346 347 345 340 344 345 311 306 321 305 272 248 25 23 4 325 301 254 239 228 300 299 279 287 14 339 313 289 287 189 314 264 263 252 259 277 309 275 263
338 339 339 340 342 342 343 345 345 344 346 341 342 326 251 327 309 285 257 9 358 10 318 302 292 354 312 322 317 310 309 47 323 316 329 315 281 196 164 249 227 251 302 254 241 270 271
337 337 338 338 339 342 341 343 346 343 347 343 356 285 332 341 292 253 298 50 296 72 328 309 325 296 295 309 299 300 290 81 30 315 309 295 276 250 261 222 248 197 236 231 249 215 251
336 338 339 339 339 340 341 342 347 344 347 354 329 277 343 339 249 322 358 9 14 277 246 281 286 283 288 311 289 283 282 338 23 313 291 334 305 272 233 292 322 302 283 4 288 223 234
332 335 339 340 341 341 342 343 348 349 351 353 318 299 335 333 311 20 98 229 290 271 298 288 276 242 320 287 297 227 300 23 326 300 1 351 249 265 245 213 190 248 259 254 253 265 269
330 333 337 341 343 342 342 344 349 351 350 350 309 291 105 62 61 320 355 181 249 191 282 278 289 268 274 267 235 263 281 202 245 294 22 312 279 275 287 132 225 282 258 279 278 262 259
326 333 339 343 344 343 342 343 349 354 358 17 319 45 348 321 51 327 286 314 277 250 219 255 241 252 300 293 284 279 274 301 274 237 257 255 275 277 280 289 278 283 283 278 246 259 267
320 328 336 343 345 343 343 341 348 2 16 34 322 340 322 279 298 276 146 231 306 305 273 271 254 305 285 280 286 308 316 296 299 314 267 243 265 276 285 272 267 275 275 268 262 266 269
317 329 334 340 343 341 340 338 339 1 48 341 330 290 286 265 244 269 17 353 325 311 271 290 313 307 284 320 330 304 293 288 282 277 286 289 272 274 270 326 298 267 258 257 254 245 251
318 325 331 335 340 338 335 333 338 353 7 344 307 290 275 283 229 299 323 268 281 283 292 296 263 284 323 314 298 278 260 254 251 251 239 259 277 271 278 285 263 34 22 306 284 273 238
315 319 329 330 335 333 329 328 336 344 355 15 304 286 289 280 317 284 245 268 266 248 238 268 286 305 313 288 277 258 236 229 240 230 232 216 252 271 254 262 275 284 170 250 265 198 211
308 314 316 325 330 328 318 312 328 343 340 33 290 263 273 299 27 1 286 271 292 285 242 218 239 294 284 276 254 259 278 327 213 171 209 227 214 244 274 231 248 76 59 36 340 247 68
302 309 313 321 326 321 306 265 286 319 319 154 297 279 270 272 285 289 299 332 342 291 288 234 264 266 234 267 307 266 267 314 263 252 191 196 226 223 244 254 291 114 111 13 247 67 48
299 301 308 317 319 309 282 257 258 281 318 335 281 277 238 271 276 278 272 264 271 250 260 41 273 199 248 283 259 274 290 339 281 260 231 192 185 224 217 237 245 85 158 271 60 326 316
291 297 305 309 307 301 250 255 254 259 280 314 277 287 258 257 258 283 257 243 227 240 262 241 287 287 27 294 309 314 281 275 271 261 264 232 323 277 306 248 72 205 298 351 307 314 315